Location: *
(49.7115°N, 15.0136°E)
Time: 19:06:13
(UTC+00:00)

STARLINK-1030 - Pass Details

Date: 27 February 2020
Orbit: 549 x 550 km, 53.0° (Epoch: 06 April)

Event Time Altitude Azimuth Distance (km) Brightness Sun altitude
Rises 17:54:40 0° 257° (WSW) 2,714 8.8 -13.1°
Reaches altitude 10° 17:56:55 10° 260° (W) 1,822 7.6 -13.5°
Maximum altitude 18:01:02 69° 344° (NNW) 593 3.8 -14.2°
Enters shadow 18:03:40 22° 64° (ENE) 1,245 4.9 -14.6°
